User: anonymous   Login
Location: Acton
(51.4942°N, 0.2232°W)
Time: 14:32:00
(UTC+00:00)
Language:

Lacrosse 5 rocket - Orbit

View from above orbital plane
View from above orbital plane
View from above satellite
View from above satellite

Ground track
Ground track

The orbit data is extracted from the following two-line orbital elements,

1 28647U 05016B   20333.30296496  .00000713  00000-0  58292-4 0  9990
2 28647  56.9967 294.0741 0129679  79.5307 282.0313 15.06143280 84644
Epoch (UTC): 28 November 2020 07:16:16
Eccentricity: 0.0129679
inclination: 56.9967°
perigee height: 458 km
apogee height: 638 km
right ascension of ascending node: 294.0741°
argument of perigee: 79.5307°
revolutions per day: 15.06143280
mean anomaly at epoch: 282.0313°
orbit number at epoch: 8464

The dashed part of the orbit path shows where the satellite is in the earth's shadow,  

DLR